Local Weather and METAR Reports

The data for these readings is taken from the NOAA Wesbite.  Please make sure you conduct your own weather check before flying.

METAR:

EGHI 230950Z 24018G30KT 200V260 9999 BKN015 13/11 Q1014


QNH (Hectopascals): 1014


QNH (Inches Mercury): 29.94


TEMPERATURE (Degrees Celsius): 13°


DEW POINT TEMPERATURE (Degrees Celsius): 11°

Live Radar

Radar Data provided by FlightRadar24

Local NOTAMS

Whilst we will strive to keep local NOTAM information up to date, please make sure that you conduct your own review of local reports before flying.

Loading RSS Feed